| time (UTC) | temp F | wind direction | speed MPH | gust MPH | rain 1hr in | rain 24hr in | rain mn in | humidity % | barometer mb |
| 20260507101025 | 53 | 0 | 0.0 | 0.0 | 0.00 | 0.16 | 0.04 | 91 | 1011.7 |
| 20260507100524 | 53 | 0 | 0.0 | 0.0 | 0.00 | 0.16 | 0.04 | 91 | 1011.7 |
| 20260507100004 | 53 | 349 | 0.0 | 1.0 | 0.00 | 0.16 | 0.04 | 91 | 1011.8 |
| 20260507095524 | 53 | 348 | 0.0 | 2.0 | 0.00 | 0.16 | 0.04 | 91 | 1011.8 |
| 20260507095003 | 53 | 338 | 0.0 | 2.0 | 0.00 | 0.16 | 0.04 | 91 | 1011.8 |
| 20260507094503 | 53 | 322 | 0.0 | 3.0 | 0.00 | 0.16 | 0.04 | 91 | 1011.6 |
| 20260507094004 | 53 | 326 | 0.0 | 3.0 | 0.00 | 0.16 | 0.04 | 91 | 1011.5 |
| 20260507093525 | 53 | 327 | 0.0 | 3.0 | 0.00 | 0.16 | 0.04 | 90 | 1011.6 |
| 20260507093003 | 53 | 317 | 0.0 | 3.0 | 0.00 | 0.16 | 0.04 | 90 | 1011.8 |
| 20260507092504 | 53 | 280 | 0.0 | 2.0 | 0.00 | 0.16 | 0.04 | 90 | 1012.0 |
| 20260507092003 | 54 | 238 | 0.0 | 2.0 | 0.00 | 0.16 | 0.04 | 90 | 1012.0 |
| 20260507091504 | 54 | 0 | 0.0 | 0.0 | 0.00 | 0.16 | 0.04 | 90 | 1011.8 |
| 20260507091003 | 54 | 0 | 0.0 | 0.0 | 0.00 | 0.16 | 0.04 | 90 | 1011.7 |
| 20260507090525 | 54 | 0 | 0.0 | 0.0 | 0.00 | 0.16 | 0.04 | 90 | 1011.6 |
| 20260507090024 | 54 | 0 | 0.0 | 0.0 | 0.00 | 0.16 | 0.04 | 90 | 1011.3 |
| 20260507085504 | 54 | 319 | 0.0 | 1.0 | 0.00 | 0.16 | 0.04 | 90 | 1011.4 |
| 20260507085005 | 54 | 317 | 0.0 | 2.0 | 0.00 | 0.16 | 0.04 | 90 | 1011.2 |
| 20260507084524 | 54 | 308 | 0.0 | 2.0 | 0.00 | 0.16 | 0.04 | 90 | 1011.3 |
| 20260507084024 | 54 | 282 | 0.0 | 1.0 | 0.00 | 0.16 | 0.04 | 90 | 1011.4 |
| 20260507083524 | 54 | 282 | 0.0 | 1.0 | 0.00 | 0.16 | 0.04 | 90 | 1011.2 |
| 20260507083005 | 54 | 289 | 0.0 | 2.0 | 0.00 | 0.16 | 0.04 | 89 | 1011.2 |
| 20260507082524 | 54 | 315 | 1.0 | 5.0 | 0.00 | 0.16 | 0.04 | 89 | 1011.1 |
| 20260507082024 | 54 | 333 | 1.0 | 5.0 | 0.00 | 0.16 | 0.04 | 89 | 1010.9 |
| 20260507081503 | 55 | 341 | 1.0 | 3.0 | 0.00 | 0.16 | 0.04 | 89 | 1010.9 |
| 20260507081003 | 55 | 339 | 1.0 | 4.0 | 0.00 | 0.16 | 0.04 | 89 | 1010.9 |
| 20260507080503 | 55 | 334 | 1.0 | 8.0 | 0.01 | 0.16 | 0.04 | 89 | 1010.8 |
| 20260507080003 | 55 | 329 | 2.0 | 9.0 | 0.01 | 0.16 | 0.04 | 89 | 1010.8 |
| 20260507075524 | 55 | 332 | 2.0 | 9.0 | 0.01 | 0.16 | 0.04 | 90 | 1010.9 |
| 20260507075003 | 55 | 332 | 2.0 | 7.0 | 0.01 | 0.16 | 0.04 | 90 | 1010.5 |
| 20260507074524 | 55 | 322 | 1.0 | 6.0 | 0.01 | 0.16 | 0.04 | 90 | 1010.4 |
| 20260507074003 | 55 | 333 | 1.0 | 8.0 | 0.01 | 0.16 | 0.04 | 90 | 1010.4 |
| 20260507073524 | 55 | 332 | 2.0 | 8.0 | 0.01 | 0.16 | 0.04 | 90 | 1010.4 |
| 20260507073024 | 55 | 324 | 2.0 | 8.0 | 0.01 | 0.16 | 0.04 | 90 | 1010.6 |
| 20260507072524 | 55 | 328 | 2.0 | 8.0 | 0.01 | 0.16 | 0.04 | 90 | 1010.5 |
| 20260507072003 | 55 | 333 | 1.0 | 5.0 | 0.01 | 0.16 | 0.04 | 90 | 1010.3 |
| 20260507071524 | 55 | 333 | 2.0 | 6.0 | 0.01 | 0.16 | 0.04 | 90 | 1010.2 |
| 20260507071024 | 55 | 331 | 1.0 | 6.0 | 0.01 | 0.16 | 0.04 | 90 | 1010.2 |
| 20260507070503 | 55 | 333 | 1.0 | 5.0 | 0.01 | 0.15 | 0.03 | 90 | 1010.2 |
| 20260507070024 | 55 | 337 | 1.0 | 5.0 | 0.01 | 0.15 | 0.03 | 90 | 1010.4 |
| 20260507065524 | 56 | 341 | 2.0 | 6.0 | 0.01 | 0.15 | 0.03 | 90 | 1010.4 |
| 20260507065024 | 56 | 328 | 2.0 | 6.0 | 0.01 | 0.15 | 0.03 | 90 | 1010.5 |
| 20260507064524 | 56 | 318 | 2.0 | 5.0 | 0.01 | 0.15 | 0.03 | 90 | 1010.3 |
| 20260507064024 | 56 | 321 | 2.0 | 6.0 | 0.01 | 0.15 | 0.03 | 90 | 1010.1 |
| 20260507063504 | 56 | 319 | 2.0 | 5.0 | 0.02 | 0.15 | 0.03 | 89 | 1010.1 |
| 20260507063004 | 56 | 338 | 2.0 | 5.0 | 0.02 | 0.15 | 0.03 | 89 | 1009.9 |
| 20260507062503 | 56 | 349 | 2.0 | 8.0 | 0.02 | 0.15 | 0.03 | 89 | 1010.0 |
| 20260507062024 | 57 | 342 | 2.0 | 10.0 | 0.02 | 0.15 | 0.03 | 89 | 1010.1 |
| 20260507061524 | 57 | 338 | 2.0 | 10.0 | 0.02 | 0.15 | 0.03 | 89 | 1010.3 |
| 20260507061003 | 57 | 330 | 2.0 | 5.0 | 0.02 | 0.15 | 0.03 | 89 | 1010.4 |
| 20260507060524 | 58 | 333 | 2.0 | 8.0 | 0.02 | 0.14 | 0.02 | 89 | 1010.2 |
| 20260507060024 | 58 | 343 | 1.0 | 8.0 | 0.02 | 0.14 | 0.02 | 89 | 1010.5 |
| 20260507055504 | 58 | 337 | 2.0 | 8.0 | 0.02 | 0.14 | 0.02 | 88 | 1010.4 |
| 20260507055003 | 58 | 336 | 3.0 | 8.0 | 0.02 | 0.14 | 0.02 | 88 | 1010.3 |
| 20260507054524 | 58 | 346 | 2.0 | 8.0 | 0.02 | 0.14 | 0.02 | 87 | 1010.3 |
| 20260507054003 | 59 | 336 | 3.0 | 10.0 | 0.02 | 0.14 | 0.02 | 86 | 1010.3 |
| 20260507053503 | 60 | 327 | 2.0 | 10.0 | 0.01 | 0.13 | 0.01 | 85 | 1010.3 |
| 20260507053024 | 60 | 312 | 1.0 | 4.0 | 0.01 | 0.13 | 0.01 | 84 | 1010.2 |
| 20260507052524 | 61 | 323 | 1.0 | 4.0 | 0.01 | 0.13 | 0.01 | 84 | 1010.4 |
| 20260507052003 | 61 | 330 | 1.0 | 4.0 | 0.01 | 0.13 | 0.01 | 82 | 1010.4 |
| 20260507051524 | 61 | 319 | 2.0 | 6.0 | 0.01 | 0.13 | 0.01 | 81 | 1010.7 |
| 20260507051025 | 61 | 316 | 2.0 | 9.0 | 0.01 | 0.13 | 0.01 | 80 | 1010.8 |
| 20260507050524 | 62 | 310 | 2.0 | 9.0 | 0.00 | 0.12 | 0.00 | 80 | 1010.7 |
| 20260507050025 | 62 | 339 | 2.0 | 8.0 | 0.00 | 0.12 | 0.00 | 81 | 1010.5 |
| 20260507045524 | 62 | 345 | 2.0 | 8.0 | 0.00 | 0.12 | 0.00 | 79 | 1010.2 |
| 20260507045024 | 63 | 334 | 2.0 | 9.0 | 0.00 | 0.12 | 0.00 | 81 | 1010.5 |
| 20260507044503 | 63 | 338 | 2.0 | 9.0 | 0.00 | 0.12 | 0.00 | 80 | 1010.2 |
| 20260507044024 | 64 | 317 | 3.0 | 13.0 | 0.00 | 0.12 | 0.00 | 81 | 1010.3 |
| 20260507043504 | 64 | 311 | 2.0 | 13.0 | 0.00 | 0.12 | 0.00 | 80 | 1010.2 |
| 20260507043025 | 64 | 328 | 1.0 | 4.0 | 0.00 | 0.12 | 0.00 | 80 | 1009.9 |
| 20260507042524 | 64 | 315 | 1.0 | 4.0 | 0.00 | 0.12 | 0.00 | 80 | 1009.9 |
| 20260507042024 | 64 | 302 | 2.0 | 8.0 | 0.00 | 0.12 | 0.00 | 79 | 1009.8 |
| 20260507041524 | 64 | 307 | 1.0 | 8.0 | 0.00 | 0.12 | 0.00 | 79 | 1009.8 |
| 20260507041003 | 64 | 311 | 0.0 | 2.0 | 0.00 | 0.12 | 0.00 | 79 | 1009.6 |
| 20260507040524 | 64 | 309 | 1.0 | 4.0 | 0.00 | 0.12 | 0.00 | 79 | 1009.3 |
| 20260507040004 | 64 | 311 | 1.0 | 4.0 | 0.00 | 0.12 | 0.00 | 78 | 1009.2 |
| 20260507035503 | 64 | 304 | 2.0 | 5.0 | 0.00 | 0.12 | 0.12 | 78 | 1009.6 |
| 20260507035003 | 64 | 305 | 2.0 | 5.0 | 0.00 | 0.12 | 0.12 | 78 | 1009.7 |
| 20260507034505 | 65 | 312 | 2.0 | 5.0 | 0.00 | 0.12 | 0.12 | 77 | 1009.9 |
| 20260507034004 | 65 | 320 | 1.0 | 4.0 | 0.00 | 0.12 | 0.12 | 77 | 1009.8 |
| 20260507033503 | 65 | 312 | 3.0 | 12.0 | 0.00 | 0.12 | 0.12 | 77 | 1009.8 |
| 20260507033003 | 65 | 309 | 3.0 | 12.0 | 0.00 | 0.12 | 0.12 | 76 | 1009.6 |
| 20260507032524 | 65 | 312 | 2.0 | 9.0 | 0.00 | 0.12 | 0.12 | 77 | 1009.6 |
| 20260507032025 | 65 | 317 | 2.0 | 9.0 | 0.00 | 0.12 | 0.12 | 77 | 1009.5 |
| 20260507031524 | 66 | 317 | 3.0 | 9.0 | 0.00 | 0.12 | 0.12 | 77 | 1009.5 |
| 20260507031024 | 66 | 317 | 3.0 | 9.0 | 0.00 | 0.12 | 0.12 | 78 | 1009.5 |
| 20260507030503 | 66 | 317 | 2.0 | 9.0 | 0.00 | 0.12 | 0.12 | 80 | 1009.4 |
| 20260507030005 | 66 | 315 | 3.0 | 10.0 | 0.00 | 0.12 | 0.12 | 82 | 1009.3 |
| 20260507025503 | 66 | 309 | 2.0 | 10.0 | 0.00 | 0.12 | 0.12 | 84 | 1009.3 |
| 20260507025024 | 67 | 309 | 2.0 | 6.0 | 0.00 | 0.12 | 0.12 | 86 | 1009.3 |
| 20260507024524 | 67 | 301 | 2.0 | 5.0 | 0.00 | 0.12 | 0.12 | 86 | 1009.2 |
| 20260507024003 | 67 | 300 | 1.0 | 3.0 | 0.00 | 0.12 | 0.12 | 86 | 1009.0 |
| 20260507023524 | 67 | 340 | 0.0 | 2.0 | 0.00 | 0.12 | 0.12 | 85 | 1008.9 |
| 20260507023003 | 67 | 327 | 0.0 | 2.0 | 0.00 | 0.12 | 0.12 | 85 | 1008.9 |
| 20260507022503 | 67 | 289 | 0.0 | 3.0 | 0.00 | 0.12 | 0.12 | 85 | 1008.9 |
| 20260507022003 | 67 | 277 | 1.0 | 3.0 | 0.00 | 0.12 | 0.12 | 85 | 1008.9 |
| 20260507021503 | 67 | 270 | 0.0 | 3.0 | 0.00 | 0.12 | 0.12 | 85 | 1008.9 |
| 20260507021024 | 67 | 0 | 0.0 | 0.0 | 0.00 | 0.12 | 0.12 | 84 | 1008.8 |
| 20260507020525 | 67 | 0 | 0.0 | 0.0 | 0.00 | 0.12 | 0.12 | 84 | 1008.6 |
| 20260507020024 | 67 | 0 | 0.0 | 0.0 | 0.00 | 0.12 | 0.12 | 84 | 1008.6 |
| 20260507015524 | 67 | 0 | 0.0 | 0.0 | 0.00 | 0.12 | 0.12 | 84 | 1008.5 |
| 20260507015025 | 67 | 150 | 0.0 | 3.0 | 0.00 | 0.12 | 0.12 | 84 | 1008.7 |
| 20260507014503 | 67 | 118 | 1.0 | 3.0 | 0.00 | 0.12 | 0.12 | 84 | 1009.0 |
| 20260507014003 | 67 | 108 | 0.0 | 3.0 | 0.00 | 0.12 | 0.12 | 84 | 1009.0 |
| 20260507013524 | 68 | 0 | 0.0 | 0.0 | 0.00 | 0.12 | 0.12 | 84 | 1009.2 |
| 20260507013024 | 68 | 0 | 0.0 | 0.0 | 0.00 | 0.12 | 0.12 | 83 | 1009.2 |
| 20260507012524 | 68 | 0 | 0.0 | 0.0 | 0.00 | 0.12 | 0.12 | 83 | 1009.1 |
| 20260507012003 | 68 | 172 | 0.0 | 2.0 | 0.00 | 0.12 | 0.12 | 83 | 1009.3 |
| 20260507011524 | 68 | 184 | 1.0 | 3.0 | 0.00 | 0.12 | 0.12 | 83 | 1009.3 |
| 20260507010524 | 68 | 212 | 0.0 | 2.0 | 0.00 | 0.12 | 0.12 | 82 | 1009.2 |
| 20260507010004 | 68 | 198 | 1.0 | 2.0 | 0.00 | 0.12 | 0.12 | 82 | 1009.0 |
| 20260507005505 | 68 | 166 | 1.0 | 3.0 | 0.00 | 0.12 | 0.12 | 82 | 1009.0 |
| 20260507005003 | 68 | 160 | 0.0 | 3.0 | 0.00 | 0.12 | 0.12 | 82 | 1008.8 |
| 20260507004524 | 68 | 144 | 0.0 | 2.0 | 0.00 | 0.12 | 0.12 | 82 | 1008.8 |
| 20260507004004 | 68 | 133 | 1.0 | 2.0 | 0.00 | 0.12 | 0.12 | 82 | 1008.5 |
| 20260507003504 | 68 | 133 | 0.0 | 2.0 | 0.00 | 0.12 | 0.12 | 82 | 1008.7 |
| 20260507003003 | 68 | 169 | 1.0 | 4.0 | 0.00 | 0.12 | 0.12 | 82 | 1008.7 |
| 20260507002525 | 68 | 173 | 1.0 | 5.0 | 0.00 | 0.12 | 0.12 | 81 | 1008.6 |
| 20260507002004 | 68 | 179 | 1.0 | 5.0 | 0.00 | 0.12 | 0.12 | 81 | 1008.6 |
| 20260507001524 | 68 | 176 | 1.0 | 5.0 | 0.00 | 0.12 | 0.12 | 81 | 1008.7 |
| 20260507001003 | 68 | 170 | 1.0 | 6.0 | 0.00 | 0.12 | 0.12 | 81 | 1008.7 |
| 20260507000505 | 69 | 170 | 1.0 | 6.0 | 0.00 | 0.12 | 0.12 | 81 | 1008.6 |
| 20260507000024 | 69 | 184 | 1.0 | 4.0 | 0.00 | 0.12 | 0.12 | 81 | 1008.6 |
| 20260506235504 | 69 | 196 | 1.0 | 8.0 | 0.00 | 0.12 | 0.12 | 80 | 1008.7 |
| 20260506235003 | 69 | 186 | 1.0 | 8.0 | 0.00 | 0.12 | 0.12 | 80 | 1008.6 |
| 20260506234524 | 69 | 176 | 1.0 | 3.0 | 0.00 | 0.12 | 0.12 | 80 | 1008.4 |
| 20260506234004 | 69 | 187 | 1.0 | 5.0 | 0.00 | 0.12 | 0.12 | 79 | 1008.4 |
| 20260506233524 | 69 | 186 | 1.0 | 5.0 | 0.00 | 0.12 | 0.12 | 79 | 1008.4 |
| 20260506233024 | 70 | 175 | 1.0 | 5.0 | 0.00 | 0.12 | 0.12 | 79 | 1008.2 |
| 20260506232524 | 70 | 189 | 1.0 | 5.0 | 0.00 | 0.12 | 0.12 | 79 | 1008.1 |
| 20260506232003 | 70 | 188 | 1.0 | 5.0 | 0.00 | 0.12 | 0.12 | 78 | 1008.1 |
| 20260506231503 | 70 | 184 | 2.0 | 6.0 | 0.00 | 0.12 | 0.12 | 78 | 1008.0 |
| 20260506231025 | 70 | 188 | 2.0 | 6.0 | 0.00 | 0.12 | 0.12 | 78 | 1008.1 |
| 20260506230525 | 70 | 177 | 1.0 | 5.0 | 0.00 | 0.12 | 0.12 | 79 | 1008.0 |
| 20260506230003 | 70 | 183 | 2.0 | 7.0 | 0.00 | 0.12 | 0.12 | 78 | 1008.0 |
| 20260506225524 | 70 | 193 | 2.0 | 7.0 | 0.00 | 0.12 | 0.12 | 78 | 1008.2 |
| 20260506225024 | 70 | 188 | 3.0 | 9.0 | 0.00 | 0.12 | 0.12 | 78 | 1008.0 |
| 20260506224503 | 70 | 173 | 2.0 | 9.0 | 0.00 | 0.12 | 0.12 | 77 | 1008.0 |
| 20260506224025 | 70 | 182 | 1.0 | 4.0 | 0.00 | 0.12 | 0.12 | 78 | 1008.1 |
| 20260506223503 | 70 | 196 | 2.0 | 9.0 | 0.00 | 0.12 | 0.12 | 77 | 1008.1 |
| 20260506223004 | 70 | 190 | 2.0 | 9.0 | 0.00 | 0.12 | 0.12 | 78 | 1008.1 |
| 20260506222504 | 70 | 180 | 2.0 | 6.0 | 0.00 | 0.12 | 0.12 | 77 | 1008.1 |
| 20260506222024 | 70 | 176 | 2.0 | 7.0 | 0.00 | 0.12 | 0.12 | 77 | 1008.2 |
| 20260506221504 | 70 | 199 | 3.0 | 8.0 | 0.00 | 0.12 | 0.12 | 77 | 1008.1 |
| 20260506221025 | 71 | 201 | 3.0 | 8.0 | 0.00 | 0.12 | 0.12 | 76 | 1008.2 |
| 20260506220524 | 71 | 187 | 3.0 | 9.0 | 0.00 | 0.12 | 0.12 | 76 | 1008.2 |
| 20260506220004 | 71 | 182 | 2.0 | 9.0 | 0.00 | 0.12 | 0.12 | 76 | 1008.1 |
| 20260506215503 | 71 | 188 | 3.0 | 11.0 | 0.00 | 0.12 | 0.12 | 76 | 1008.2 |
| 20260506215003 | 71 | 185 | 3.0 | 11.0 | 0.00 | 0.12 | 0.12 | 75 | 1008.1 |
| 20260506214525 | 71 | 177 | 3.0 | 9.0 | 0.00 | 0.12 | 0.12 | 75 | 1008.0 |
| 20260506214004 | 71 | 177 | 4.0 | 10.0 | 0.00 | 0.12 | 0.12 | 75 | 1007.9 |
| 20260506213503 | 72 | 182 | 3.0 | 10.0 | 0.00 | 0.12 | 0.12 | 74 | 1008.0 |
| 20260506213003 | 72 | 184 | 3.0 | 10.0 | 0.00 | 0.12 | 0.12 | 76 | 1007.9 |
| 20260506212524 | 72 | 196 | 4.0 | 10.0 | 0.00 | 0.12 | 0.12 | 75 | 1007.8 |
| 20260506212024 | 72 | 210 | 3.0 | 9.0 | 0.00 | 0.12 | 0.12 | 75 | 1007.8 |
| 20260506211524 | 72 | 201 | 2.0 | 9.0 | 0.00 | 0.12 | 0.12 | 75 | 1007.9 |
| 20260506211025 | 71 | 198 | 3.0 | 9.0 | 0.00 | 0.12 | 0.12 | 74 | 1007.8 |
| 20260506210524 | 72 | 195 | 3.0 | 9.0 | 0.00 | 0.12 | 0.12 | 75 | 1007.7 |
| 20260506210024 | 72 | 195 | 2.0 | 9.0 | 0.00 | 0.12 | 0.12 | 75 | 1007.6 |
| 20260506205524 | 71 | 188 | 3.0 | 8.0 | 0.00 | 0.12 | 0.12 | 75 | 1007.6 |
| 20260506205005 | 71 | 186 | 5.0 | 15.0 | 0.00 | 0.12 | 0.12 | 74 | 1007.5 |
| 20260506204524 | 72 | 184 | 5.0 | 15.0 | 0.00 | 0.12 | 0.12 | 74 | 1007.6 |
| 20260506204025 | 72 | 181 | 5.0 | 12.0 | 0.00 | 0.12 | 0.12 | 74 | 1007.6 |
| 20260506203503 | 72 | 186 | 4.0 | 12.0 | 0.00 | 0.12 | 0.12 | 73 | 1007.6 |
| 20260506203003 | 72 | 189 | 4.0 | 11.0 | 0.00 | 0.12 | 0.12 | 74 | 1007.6 |
| 20260506202503 | 71 | 179 | 5.0 | 16.0 | 0.00 | 0.12 | 0.12 | 74 | 1007.4 |
| 20260506202004 | 72 | 182 | 5.0 | 16.0 | 0.00 | 0.12 | 0.12 | 73 | 1007.7 |
| 20260506201503 | 72 | 196 | 5.0 | 16.0 | 0.00 | 0.12 | 0.12 | 72 | 1007.6 |
| 20260506201004 | 72 | 179 | 5.0 | 14.0 | 0.00 | 0.12 | 0.12 | 74 | 1007.6 |
| 20260506200524 | 72 | 177 | 5.0 | 14.0 | 0.00 | 0.12 | 0.12 | 73 | 1007.4 |
| 20260506200025 | 72 | 186 | 5.0 | 14.0 | 0.00 | 0.12 | 0.12 | 74 | 1007.5 |
| 20260506195524 | 71 | 181 | 5.0 | 12.0 | 0.00 | 0.12 | 0.12 | 74 | 1007.5 |
| 20260506195024 | 71 | 177 | 6.0 | 17.0 | 0.00 | 0.12 | 0.12 | 74 | 1007.5 |
| 20260506194524 | 71 | 174 | 6.0 | 17.0 | 0.00 | 0.12 | 0.12 | 74 | 1007.6 |
| 20260506194003 | 71 | 185 | 5.0 | 16.0 | 0.00 | 0.12 | 0.12 | 74 | 1007.7 |
| 20260506193525 | 71 | 186 | 7.0 | 16.0 | 0.00 | 0.12 | 0.12 | 74 | 1007.6 |
| 20260506193004 | 72 | 196 | 6.0 | 15.0 | 0.00 | 0.12 | 0.12 | 73 | 1007.7 |
| 20260506192503 | 72 | 208 | 5.0 | 12.0 | 0.00 | 0.12 | 0.12 | 75 | 1007.7 |
| 20260506192003 | 71 | 183 | 5.0 | 12.0 | 0.00 | 0.12 | 0.12 | 75 | 1007.8 |
| 20260506191503 | 71 | 179 | 4.0 | 12.0 | 0.00 | 0.12 | 0.12 | 77 | 1007.9 |
| 20260506191024 | 70 | 185 | 4.0 | 14.0 | 0.00 | 0.12 | 0.12 | 77 | 1007.9 |
| 20260506190524 | 69 | 183 | 7.0 | 14.0 | 0.00 | 0.12 | 0.12 | 77 | 1008.0 |
| 20260506190024 | 69 | 174 | 5.0 | 13.0 | 0.00 | 0.12 | 0.12 | 77 | 1008.1 |
| 20260506185503 | 69 | 170 | 5.0 | 21.0 | 0.00 | 0.12 | 0.12 | 78 | 1008.1 |
| 20260506185004 | 69 | 175 | 6.0 | 21.0 | 0.00 | 0.12 | 0.12 | 77 | 1008.2 |
| 20260506184503 | 69 | 182 | 7.0 | 22.0 | 0.00 | 0.12 | 0.12 | 78 | 1008.3 |
| 20260506184024 | 69 | 184 | 6.0 | 22.0 | 0.01 | 0.12 | 0.12 | 77 | 1008.3 |
| 20260506183503 | 69 | 175 | 4.0 | 13.0 | 0.01 | 0.12 | 0.12 | 78 | 1008.3 |
| 20260506183024 | 69 | 184 | 5.0 | 13.0 | 0.01 | 0.12 | 0.12 | 78 | 1008.5 |
| 20260506182503 | 69 | 194 | 5.0 | 14.0 | 0.01 | 0.12 | 0.12 | 79 | 1008.5 |
| 20260506182003 | 68 | 190 | 6.0 | 17.0 | 0.01 | 0.12 | 0.12 | 80 | 1008.5 |
| 20260506181524 | 68 | 189 | 6.0 | 17.0 | 0.01 | 0.12 | 0.12 | 80 | 1008.6 |
| 20260506181024 | 68 | 184 | 6.0 | 20.0 | 0.01 | 0.12 | 0.12 | 81 | 1008.6 |
| 20260506180524 | 67 | 180 | 6.0 | 20.0 | 0.01 | 0.12 | 0.12 | 82 | 1008.7 |
| 20260506180025 | 67 | 176 | 5.0 | 17.0 | 0.01 | 0.12 | 0.12 | 81 | 1008.8 |
| 20260506175524 | 67 | 179 | 5.0 | 18.0 | 0.02 | 0.12 | 0.12 | 82 | 1008.7 |
| 20260506175025 | 66 | 188 | 7.0 | 21.0 | 0.02 | 0.12 | 0.12 | 83 | 1008.7 |
| 20260506174503 | 66 | 183 | 6.0 | 21.0 | 0.02 | 0.12 | 0.12 | 83 | 1008.8 |
| 20260506174004 | 66 | 183 | 5.0 | 20.0 | 0.01 | 0.11 | 0.11 | 84 | 1008.8 |
| 20260506173526 | 66 | 194 | 5.0 | 15.0 | 0.01 | 0.11 | 0.11 | 85 | 1008.7 |
| 20260506173005 | 66 | 188 | 5.0 | 14.0 | 0.02 | 0.11 | 0.11 | 86 | 1008.9 |
| 20260506172505 | 65 | 176 | 6.0 | 20.0 | 0.02 | 0.11 | 0.11 | 86 | 1009.0 |
| 20260506172027 | 65 | 177 | 6.0 | 20.0 | 0.02 | 0.11 | 0.11 | 87 | 1009.0 |
| 20260506171526 | 65 | 187 | 5.0 | 13.0 | 0.02 | 0.11 | 0.11 | 88 | 1009.0 |
| 20260506171026 | 65 | 185 | 5.0 | 12.0 | 0.02 | 0.11 | 0.11 | 89 | 1008.9 |
| 20260506170506 | 65 | 169 | 4.0 | 10.0 | 0.03 | 0.11 | 0.11 | 89 | 1008.9 |
| 20260506170005 | 64 | 173 | 4.0 | 10.0 | 0.03 | 0.11 | 0.11 | 90 | 1009.0 |
| 20260506165526 | 64 | 165 | 4.0 | 13.0 | 0.02 | 0.10 | 0.10 | 90 | 1009.0 |
| 20260506165005 | 64 | 174 | 5.0 | 13.0 | 0.02 | 0.10 | 0.10 | 90 | 1009.2 |
| 20260506164506 | 64 | 182 | 4.0 | 11.0 | 0.03 | 0.10 | 0.10 | 91 | 1009.2 |
| 20260506164006 | 64 | 179 | 4.0 | 18.0 | 0.03 | 0.10 | 0.10 | 91 | 1009.2 |
| 20260506163528 | 64 | 177 | 5.0 | 18.0 | 0.03 | 0.10 | 0.10 | 91 | 1009.1 |
| 20260506163026 | 63 | 174 | 4.0 | 13.0 | 0.02 | 0.09 | 0.09 | 91 | 1009.1 |
| 20260506162526 | 63 | 171 | 4.0 | 13.0 | 0.03 | 0.09 | 0.09 | 92 | 1009.1 |
| 20260506162026 | 63 | 155 | 3.0 | 8.0 | 0.03 | 0.09 | 0.09 | 92 | 1009.1 |
| 20260506161505 | 63 | 142 | 3.0 | 12.0 | 0.03 | 0.09 | 0.09 | 93 | 1009.1 |
| 20260506161026 | 62 | 148 | 4.0 | 12.0 | 0.04 | 0.09 | 0.09 | 92 | 1009.2 |
| 20260506160526 | 62 | 165 | 4.0 | 10.0 | 0.03 | 0.08 | 0.08 | 92 | 1009.5 |
| 20260506160006 | 62 | 174 | 4.0 | 16.0 | 0.03 | 0.08 | 0.08 | 92 | 1009.6 |
| 20260506155526 | 62 | 168 | 3.0 | 16.0 | 0.04 | 0.08 | 0.08 | 92 | 1009.6 |
| 20260506155005 | 62 | 153 | 3.0 | 12.0 | 0.04 | 0.08 | 0.08 | 92 | 1009.5 |
| 20260506154526 | 62 | 166 | 3.0 | 10.0 | 0.03 | 0.07 | 0.07 | 92 | 1009.6 |
| 20260506154026 | 62 | 172 | 3.0 | 8.0 | 0.04 | 0.07 | 0.07 | 92 | 1009.4 |
| 20260506153528 | 62 | 161 | 3.0 | 7.0 | 0.04 | 0.07 | 0.07 | 92 | 1009.3 |
| 20260506153005 | 62 | 155 | 3.0 | 11.0 | 0.04 | 0.07 | 0.07 | 92 | 1009.7 |
| 20260506152506 | 62 | 163 | 3.0 | 11.0 | 0.04 | 0.06 | 0.06 | 92 | 1009.8 |
| 20260506152027 | 62 | 172 | 3.0 | 10.0 | 0.04 | 0.06 | 0.06 | 92 | 1010.0 |
| 20260506151505 | 62 | 178 | 4.0 | 10.0 | 0.04 | 0.06 | 0.06 | 91 | 1010.2 |
| 20260506151027 | 62 | 179 | 4.0 | 15.0 | 0.04 | 0.05 | 0.05 | 91 | 1010.2 |
| 20260506150505 | 62 | 172 | 3.0 | 15.0 | 0.04 | 0.05 | 0.05 | 91 | 1010.2 |
| 20260506150026 | 62 | 158 | 2.0 | 9.0 | 0.04 | 0.05 | 0.05 | 90 | 1010.2 |
| 20260506145505 | 62 | 164 | 3.0 | 11.0 | 0.03 | 0.04 | 0.04 | 90 | 1010.3 |
| 20260506145005 | 62 | 171 | 4.0 | 11.0 | 0.04 | 0.04 | 0.04 | 89 | 1010.2 |
| 20260506144505 | 62 | 168 | 4.0 | 9.0 | 0.04 | 0.04 | 0.04 | 88 | 1010.4 |
| 20260506144026 | 62 | 165 | 3.0 | 9.0 | 0.03 | 0.03 | 0.03 | 88 | 1010.3 |
| 20260506143505 | 63 | 162 | 2.0 | 9.0 | 0.03 | 0.03 | 0.03 | 87 | 1010.2 |
| 20260506143026 | 63 | 148 | 2.0 | 10.0 | 0.03 | 0.03 | 0.03 | 87 | 1010.2 |
| 20260506142526 | 63 | 156 | 2.0 | 10.0 | 0.02 | 0.02 | 0.03 | 86 | 1010.1 |
| 20260506142005 | 63 | 164 | 3.0 | 8.0 | 0.02 | 0.02 | 0.02 | 86 | 1010.2 |
| 20260506141526 | 63 | 171 | 3.0 | 8.0 | 0.02 | 0.02 | 0.02 | 85 | 1010.2 |
| 20260506141005 | 64 | 173 | 2.0 | 7.0 | 0.01 | 0.01 | 0.01 | 84 | 1010.4 |
| 20260506140506 | 64 | 176 | 3.0 | 11.0 | 0.01 | 0.01 | 0.01 | 82 | 1010.3 |
| 20260506140006 | 64 | 184 | 4.0 | 11.0 | 0.01 | 0.01 | 0.01 | 81 | 1010.5 |
| 20260506135505 | 65 | 175 | 3.0 | 10.0 | 0.01 | 0.01 | 0.01 | 81 | 1010.5 |
| 20260506135026 | 65 | 173 | 4.0 | 13.0 | 0.00 | 0.00 | 0.00 | 80 | 1010.6 |
| 20260506134505 | 65 | 176 | 4.0 | 13.0 | 0.00 | 0.00 | 0.00 | 78 | 1010.7 |
| 20260506134026 | 65 | 180 | 3.0 | 12.0 | 0.00 | 0.00 | 0.00 | 78 | 1010.7 |
| 20260506133505 | 65 | 181 | 3.0 | 9.0 | 0.00 | 0.00 | 0.00 | 77 | 1010.5 |
| 20260506133026 | 65 | 175 | 3.0 | 12.0 | 0.00 | 0.00 | 0.00 | 78 | 1010.4 |
| 20260506132526 | 65 | 168 | 4.0 | 12.0 | 0.00 | 0.00 | 0.00 | 77 | 1010.3 |
| 20260506132027 | 66 | 169 | 3.0 | 12.0 | 0.00 | 0.00 | 0.00 | 77 | 1010.2 |
| 20260506131527 | 66 | 166 | 3.0 | 8.0 | 0.00 | 0.00 | 0.00 | 77 | 1010.2 |
| 20260506131026 | 66 | 168 | 3.0 | 9.0 | 0.00 | 0.00 | 0.00 | 76 | 1010.0 |
| 20260506130505 | 66 | 179 | 4.0 | 10.0 | 0.00 | 0.00 | 0.00 | 75 | 1010.0 |
| 20260506130006 | 66 | 177 | 4.0 | 15.0 | 0.00 | 0.00 | 0.00 | 75 | 1010.0 |
| 20260506125507 | 66 | 176 | 3.0 | 15.0 | 0.00 | 0.00 | 0.00 | 75 | 1010.0 |
| 20260506125005 | 66 | 169 | 3.0 | 12.0 | 0.00 | 0.00 | 0.00 | 76 | 1010.0 |
| 20260506124527 | 66 | 165 | 4.0 | 12.0 | 0.00 | 0.00 | 0.00 | 75 | 1010.1 |
| 20260506124028 | 66 | 161 | 3.0 | 9.0 | 0.00 | 0.00 | 0.00 | 76 | 1010.2 |
| 20260506123505 | 66 | 161 | 3.0 | 12.0 | 0.00 | 0.00 | 0.00 | 76 | 1010.2 |
| 20260506123005 | 66 | 167 | 4.0 | 12.0 | 0.00 | 0.00 | 0.00 | 76 | 1010.3 |
| 20260506122526 | 66 | 173 | 5.0 | 14.0 | 0.00 | 0.00 | 0.00 | 76 | 1010.4 |
| 20260506122005 | 66 | 177 | 4.0 | 14.0 | 0.00 | 0.00 | 0.00 | 76 | 1010.4 |
| 20260506121526 | 66 | 180 | 3.0 | 10.0 | 0.00 | 0.00 | 0.00 | 76 | 1010.4 |
| 20260506121027 | 66 | 168 | 4.0 | 10.0 | 0.00 | 0.00 | 0.00 | 75 | 1010.4 |
| 20260506120505 | 66 | 173 | 5.0 | 14.0 | 0.00 | 0.00 | 0.00 | 75 | 1010.3 |
| 20260506120005 | 66 | 177 | 6.0 | 14.0 | 0.00 | 0.00 | 0.00 | 75 | 1010.2 |
| 20260506115505 | 66 | 170 | 5.0 | 11.0 | 0.00 | 0.00 | 0.00 | 75 | 1010.2 |
| 20260506115026 | 66 | 163 | 4.0 | 12.0 | 0.00 | 0.00 | 0.00 | 75 | 1010.1 |
| 20260506114526 | 66 | 177 | 4.0 | 12.0 | 0.00 | 0.00 | 0.00 | 75 | 1010.1 |
| 20260506114026 | 66 | 169 | 5.0 | 13.0 | 0.00 | 0.00 | 0.00 | 75 | 1010.1 |
| 20260506113526 | 66 | 159 | 5.0 | 13.0 | 0.00 | 0.00 | 0.00 | 75 | 1010.0 |
| 20260506113005 | 66 | 168 | 5.0 | 14.0 | 0.00 | 0.00 | 0.00 | 75 | 1009.8 |
| 20260506112505 | 66 | 172 | 5.0 | 15.0 | 0.00 | 0.00 | 0.00 | 76 | 1009.9 |
| 20260506112026 | 66 | 172 | 4.0 | 15.0 | 0.00 | 0.00 | 0.00 | 76 | 1009.9 |
| 20260506111526 | 66 | 163 | 3.0 | 14.0 | 0.00 | 0.00 | 0.00 | 77 | 1009.7 |
| 20260506111026 | 65 | 159 | 4.0 | 16.0 | 0.00 | 0.00 | 0.00 | 77 | 1009.7 |
| 20260506110507 | 65 | 166 | 4.0 | 16.0 | 0.00 | 0.00 | 0.00 | 77 | 1009.7 |
| 20260506110027 | 65 | 172 | 3.0 | 13.0 | 0.00 | 0.00 | 0.00 | 77 | 1009.6 |
| 20260506105505 | 65 | 167 | 3.0 | 13.0 | 0.00 | 0.00 | 0.00 | 77 | 1009.7 |
| 20260506105026 | 65 | 168 | 4.0 | 14.0 | 0.00 | 0.00 | 0.00 | 77 | 1009.6 |
| 20260506104526 | 65 | 168 | 4.0 | 14.0 | 0.00 | 0.00 | 0.00 | 77 | 1009.6 |
| 20260506104005 | 65 | 173 | 4.0 | 13.0 | 0.00 | 0.00 | 0.00 | 77 | 1009.6 |
| 20260506103526 | 65 | 176 | 4.0 | 13.0 | 0.00 | 0.00 | 0.00 | 77 | 1009.6 |
| 20260506103028 | 65 | 165 | 4.0 | 13.0 | 0.00 | 0.00 | 0.00 | 77 | 1009.5 |
| 20260506102526 | 65 | 164 | 4.0 | 10.0 | 0.00 | 0.00 | 0.00 | 77 | 1009.6 |
| 20260506102006 | 65 | 173 | 3.0 | 11.0 | 0.00 | 0.00 | 0.00 | 77 | 1009.7 |
| 20260506101505 | 65 | 158 | 3.0 | 11.0 | 0.00 | 0.00 | 0.00 | 77 | 1009.5 |